Location: Barrialito
(10.3588°N, 66.9747°W)
Time: 13:01:33
(UTC+00:00)

Cosmos 2297 Rocket - Visible Passes

Search period start: 25 June 2022 00:00
Search period end: 05 July 2022 00:00
Orbit: 840 x 842 km, 71.0° (Epoch: 24 June)

Date Brightness Start Highest point End Pass type
(mag) Time Alt. Az. Time Alt. Az. Time Alt. Az.
25 Jun 2.7 07:44:19 54° NNE 07:44:19 54° NNE 07:48:36 10° NNE visible
26 Jun 3.3 07:30:00 39° NNE 07:30:00 39° NNE 07:33:25 10° NNE visible
27 Jun 3.9 07:15:38 29° NNE 07:15:38 29° NNE 07:18:15 10° NNE visible
28 Jun 4.3 07:01:12 22° NNE 07:01:12 22° NNE 07:03:05 10° NNE visible
29 Jun 4.6 06:46:44 17° NNE 06:46:44 17° NNE 06:47:54 10° NNE visible
30 Jun 4.9 06:32:14 13° NNE 06:32:14 13° NNE 06:32:43 10° NNE visible
